Regional Weather Roundup
Issued by NWS

Home | Current Version | Previous Version | Text Only | Print | Product List | Glossary Off
Versions: 1 2 3 4 5 6 7 8 9 10 11 12 13 14 15 16 17 18 19 20 21 22 23 24 25 26 27 28 29 30 31 32 33 34 35 36 37 38 39 40 41 42 43 44 45 46 47 48 49 50

603
ASUS45 KBOI 080910
RWRID

IDAHO REGIONAL WEATHER ROUNDUP
NATIONAL WEATHER SERVICE BOISE ID
200 AM MST THU DEC 08 2016

NOTE: "FAIR" INDICATES FEW OR NO CLOUDS BELOW 12000 FEET
WITH NO SIGNIFICANT WEATHER AND/OR OBSTRUCTIONS TO VISIBILITY

IDZ012-014-081000-
SOUTHWEST IDAHO


CITY           SKY/WX    TMP DP  RH WIND       PRES   REMARKS
BOISE          MOCLDY    18  11  74 S13       30.33F WCI   5
CALDWELL       MOCLDY    16  12  84 E9        30.36F WCI   4
MOUNTAIN HOME  MOCLDY    15  12  87 E3        30.33S
$$

IDZ016-017-081000-
SOUTHCENTRAL IDAHO


CITY           SKY/WX    TMP DP  RH WIND       PRES   REMARKS
BURLEY         PTCLDY     8   4  83 NE9       30.29F WCI  -5
JEROME         PTCLDY    13   9  84 NE22      30.29S WCI  -6
TWIN FALLS     PTCLDY     8   4  83 SE6       30.28S WCI  -2
$$

IDZ019>023-081000-
SOUTHEAST IDAHO


CITY           SKY/WX    TMP DP  RH WIND       PRES   REMARKS
IDAHO FALLS    CLEAR      3  -2  79 N5        30.33S WCI  -6
POCATELLO      CLOUDY    -5  -8  87 N3        30.33S
REXBURG        NOT AVBL
$$

IDZ006-010-011-018-031-032-081000-
CENTRAL IDAHO MOUNTAINS


CITY           SKY/WX    TMP DP  RH WIND       PRES   REMARKS
MCCALL         CLOUDY     5   1  83 CALM      30.19F
HAILEY         CLEAR      3  -4  72 NW9       30.30R WCI -11
STANLEY          N/A    -18 -24  74 CALM      30.21S
SALMON         CLOUDY     0  -6  78 SE3       30.37S
CHALLIS        CLEAR      1  -3  83 CALM      30.30S
$$

IDZ002-004-006-007-026-081000-
NORTHERN IDAHO


CITY           SKY/WX    TMP DP  RH WIND       PRES   REMARKS
LEWISTON       PTCLDY    15  12  88 E5        30.41F WCI   8
LOWELL           N/A     18  14  84 CALM      30.48S
COEUR D`ALENE  CLEAR     13   7  77 NE9       30.41F WCI   1
MULLAN PASS    CLOUDY    -1  -4  87 SE9G17    30.13S WCI -16
$$




USA.gov is the U.S. government's official web portal to all federal, state and local government web resources and services.